CPA973 ZSAM-VHHH

Flight info

Callsign CPA973
Flight time 1h 2m
Altitude 25600
Route NUSPA9Z NUSPA W597 IKATA A470 BEBEM/N0476F256 A470 DOTMI/N0464F240 V512 ABBEY
Aircraft B77W/H-SDE1E2E3FGHIJ2J3J4J5M1RWXY/LB1D1

Departure

Time 2026-05-04 22:31
Airport Xiamen Gaoqi International Airport (ZSAM)

Arrival

Time 2026-05-04 23:33
Airport Hong Kong International Airport (VHHH)
Time Latitude Longitude Altitude Speed Heading
2026-05-04 22:27 24.53675 118.12267 56 ft 0 kts 171°
2026-05-04 22:28 24.53672 118.12267 56 ft 2 kts 184°
2026-05-04 22:28 24.53628 118.12215 57 ft 18 kts 231°
2026-05-04 22:29 24.53563 118.12126 57 ft 13 kts 232°
2026-05-04 22:29 24.53581 118.12041 58 ft 12 kts 314°
2026-05-04 22:29 24.53648 118.11980 57 ft 13 kts 325°
2026-05-04 22:29 24.53721 118.11920 59 ft 14 kts 314°
2026-05-04 22:30 24.53806 118.11927 57 ft 14 kts 39°
2026-05-04 22:30 24.53928 118.12090 54 ft 60 kts 52°
2026-05-04 22:30 24.54373 118.12714 52 ft 144 kts 52°
2026-05-04 22:30 24.55113 118.13728 364 ft 179 kts 51°
2026-05-04 22:31 24.55857 118.14775 1349 ft 170 kts 52°
2026-05-04 22:31 24.56596 118.15814 2116 ft 179 kts 51°
2026-05-04 22:31 24.57389 118.16921 2758 ft 190 kts 52°
2026-05-04 22:31 24.58232 118.18103 3371 ft 203 kts 52°
2026-05-04 22:32 24.59116 118.19345 4152 ft 209 kts 51°
2026-05-04 22:32 24.60042 118.20645 4835 ft 221 kts 50°
2026-05-04 22:32 24.61002 118.21992 5609 ft 226 kts 50°
2026-05-04 22:32 24.61912 118.23431 6274 ft 234 kts 65°
2026-05-04 22:33 24.62279 118.25195 6874 ft 242 kts 93°
2026-05-04 22:33 24.61885 118.26976 7522 ft 242 kts 122°
2026-05-04 22:33 24.60812 118.28358 8168 ft 237 kts 152°
2026-05-04 22:33 24.59331 118.29033 8852 ft 227 kts 179°
2026-05-04 22:34 24.57802 118.28939 9573 ft 218 kts 203°
2026-05-04 22:34 24.56488 118.28196 10276 ft 211 kts 221°
2026-05-04 22:34 24.55445 118.27076 10949 ft 209 kts 233°
2026-05-04 22:34 24.54534 118.25818 11688 ft 211 kts 234°
2026-05-04 22:35 24.53623 118.24535 12490 ft 211 kts 234°
2026-05-04 22:35 24.52682 118.23212 13038 ft 234 kts 234°
2026-05-04 22:35 24.51610 118.21709 13294 ft 266 kts 234°
2026-05-04 22:35 24.50406 118.20012 13539 ft 298 kts 234°
2026-05-04 22:36 24.49068 118.18117 13799 ft 330 kts 234°
2026-05-04 22:36 24.47600 118.16041 14099 ft 356 kts 233°
2026-05-04 22:36 24.46074 118.13889 14797 ft 366 kts 234°
2026-05-04 22:36 24.44479 118.11643 15755 ft 370 kts 234°
2026-05-04 22:37 24.42887 118.09404 16732 ft 373 kts 234°
2026-05-04 22:37 24.41284 118.07148 17698 ft 377 kts 234°
2026-05-04 22:37 24.39665 118.04869 18614 ft 380 kts 234°
2026-05-04 22:37 24.38055 118.02603 19419 ft 383 kts 234°
2026-05-04 22:38 24.36403 118.00287 20138 ft 387 kts 234°
2026-05-04 22:38 24.34717 117.97918 20936 ft 391 kts 234°
2026-05-04 22:38 24.33039 117.95559 21740 ft 393 kts 234°
2026-05-04 22:38 24.31375 117.93226 22533 ft 395 kts 235°
2026-05-04 22:39 24.29672 117.90836 23246 ft 400 kts 235°
2026-05-04 22:39 24.27952 117.88423 23904 ft 404 kts 235°
2026-05-04 22:39 24.26216 117.85991 24512 ft 406 kts 235°
2026-05-04 22:39 24.24456 117.83558 25132 ft 409 kts 233°
2026-05-04 22:40 24.22505 117.81259 25613 ft 416 kts 229°
2026-05-04 22:40 24.20413 117.79046 25649 ft 422 kts 227°
2026-05-04 22:40 24.18259 117.76831 25655 ft 427 kts 227°
2026-05-04 22:40 24.16092 117.74597 25655 ft 428 kts 227°
2026-05-04 22:41 24.13941 117.72341 25646 ft 428 kts 228°
2026-05-04 22:41 24.11809 117.70074 25652 ft 427 kts 229°
2026-05-04 22:41 24.09686 117.67801 25664 ft 427 kts 229°
2026-05-04 22:41 24.07565 117.65526 25658 ft 427 kts 229°
2026-05-04 22:42 24.05442 117.63254 25655 ft 427 kts 229°
2026-05-04 22:42 24.03314 117.60976 25662 ft 427 kts 229°
2026-05-04 22:42 24.01193 117.58701 25650 ft 427 kts 229°
2026-05-04 22:42 23.99074 117.56429 25649 ft 426 kts 229°
2026-05-04 22:43 23.96958 117.54160 25658 ft 426 kts 229°
2026-05-04 22:43 23.94841 117.51892 25656 ft 426 kts 229°
2026-05-04 22:43 23.92725 117.49626 25654 ft 425 kts 229°
2026-05-04 22:43 23.90614 117.47365 25647 ft 426 kts 228°
2026-05-04 22:44 23.88494 117.45098 25662 ft 427 kts 229°
2026-05-04 22:44 23.87130 117.43557 25656 ft 425 kts 232°
2026-05-04 22:44 23.85376 117.40978 25656 ft 422 kts 240°
2026-05-04 22:44 23.83898 117.38210 25657 ft 422 kts 244°
2026-05-04 22:45 23.82638 117.35325 25659 ft 421 kts 249°
2026-05-04 22:45 23.80901 117.29224 25661 ft 421 kts 254°
2026-05-04 22:45 23.80063 117.26168 25662 ft 421 kts 253°
2026-05-04 22:46 23.79207 117.23116 25658 ft 421 kts 253°
2026-05-04 22:46 23.78338 117.20057 25660 ft 421 kts 253°
2026-05-04 22:46 23.77333 117.17059 25657 ft 422 kts 246°
2026-05-04 22:46 23.75950 117.14232 25668 ft 423 kts 241°
2026-05-04 22:47 23.74352 117.11530 25663 ft 424 kts 238°
2026-05-04 22:47 23.72536 117.08984 25660 ft 427 kts 231°
2026-05-04 22:47 23.70480 117.06630 25640 ft 429 kts 229°
2026-05-04 22:47 23.68394 117.04302 25642 ft 430 kts 228°
2026-05-04 22:48 23.66299 117.01974 25652 ft 430 kts 229°
2026-05-04 22:48 23.64223 116.99633 25655 ft 430 kts 230°
2026-05-04 22:48 23.62152 116.97283 25660 ft 430 kts 230°
2026-05-04 22:48 23.60078 116.94927 25658 ft 430 kts 230°
2026-05-04 22:49 23.58008 116.92577 25660 ft 430 kts 230°
2026-05-04 22:49 23.55932 116.90222 25659 ft 430 kts 230°
2026-05-04 22:49 23.53858 116.87869 25659 ft 430 kts 230°
2026-05-04 22:49 23.51786 116.85520 25668 ft 430 kts 230°
2026-05-04 22:50 23.49716 116.83173 25660 ft 430 kts 230°
2026-05-04 22:50 23.47640 116.80822 25630 ft 429 kts 229°
2026-05-04 22:50 23.45567 116.78476 25647 ft 431 kts 229°
2026-05-04 22:50 23.43396 116.76206 25658 ft 435 kts 225°
2026-05-04 22:51 23.41012 116.74142 25659 ft 439 kts 221°
2026-05-04 22:51 23.38566 116.72142 25662 ft 441 kts 221°
2026-05-04 22:51 23.36087 116.70101 25674 ft 452 kts 221°
2026-05-04 22:51 23.33567 116.68017 25663 ft 457 kts 221°
2026-05-04 22:52 23.31030 116.65916 25660 ft 458 kts 221°
2026-05-04 22:52 23.28500 116.63821 25651 ft 458 kts 221°
2026-05-04 22:52 23.25959 116.61715 25659 ft 458 kts 221°
2026-05-04 22:52 23.23459 116.59643 25654 ft 458 kts 221°
2026-05-04 22:53 23.20921 116.57537 25642 ft 459 kts 221°
2026-05-04 22:53 23.18376 116.55427 25668 ft 461 kts 221°
2026-05-04 22:53 23.15828 116.53315 25667 ft 461 kts 221°
2026-05-04 22:53 23.13272 116.51199 25656 ft 462 kts 221°
2026-05-04 22:54 23.10718 116.49086 25657 ft 461 kts 221°
2026-05-04 22:54 23.08168 116.46978 25663 ft 461 kts 221°
2026-05-04 22:54 23.05620 116.44872 25653 ft 460 kts 221°
2026-05-04 22:54 23.03071 116.42764 25653 ft 460 kts 221°
2026-05-04 22:55 23.00527 116.40664 25659 ft 460 kts 221°
2026-05-04 22:55 22.97982 116.38561 25649 ft 460 kts 221°
2026-05-04 22:55 22.95436 116.36460 25653 ft 460 kts 221°
2026-05-04 22:55 22.92896 116.34358 25653 ft 459 kts 221°
2026-05-04 22:56 22.90362 116.32249 25652 ft 459 kts 221°
2026-05-04 22:56 22.87832 116.30139 25654 ft 459 kts 221°
2026-05-04 22:56 22.85303 116.28030 25655 ft 459 kts 221°
2026-05-04 22:56 22.82772 116.25922 25656 ft 459 kts 221°
2026-05-04 22:57 22.80237 116.23812 25661 ft 458 kts 221°
2026-05-04 22:57 22.77709 116.21711 25657 ft 458 kts 221°
2026-05-04 22:57 22.75183 116.19611 25656 ft 458 kts 221°
2026-05-04 22:57 22.72654 116.17511 25640 ft 458 kts 221°
2026-05-04 22:58 22.70116 116.15411 25645 ft 460 kts 221°
2026-05-04 22:58 22.67553 116.13316 25650 ft 463 kts 220°
2026-05-04 22:58 22.64975 116.11221 25657 ft 464 kts 220°
2026-05-04 22:58 22.62384 116.09117 25657 ft 466 kts 220°
2026-05-04 22:59 22.59788 116.07009 25640 ft 467 kts 220°
2026-05-04 22:59 22.57190 116.04899 25638 ft 466 kts 220°
2026-05-04 22:59 22.54601 116.02794 25645 ft 465 kts 220°
2026-05-04 22:59 22.52014 116.00691 25649 ft 464 kts 220°
2026-05-04 23:00 22.49432 115.98591 25648 ft 464 kts 221°
2026-05-04 23:00 22.46851 115.96492 25631 ft 464 kts 220°
2026-05-04 23:00 22.44272 115.94398 25641 ft 465 kts 221°
2026-05-04 23:00 22.41719 115.92326 25645 ft 466 kts 221°
2026-05-04 23:01 22.39127 115.90222 25641 ft 466 kts 221°
2026-05-04 23:01 22.36524 115.88111 25642 ft 467 kts 221°
2026-05-04 23:01 22.33947 115.85992 25633 ft 461 kts 224°
2026-05-04 23:01 22.31808 115.83454 25632 ft 456 kts 239°
2026-05-04 23:02 22.30371 115.80423 25636 ft 454 kts 250°
2026-05-04 23:02 22.29471 115.77160 25639 ft 454 kts 259°
2026-05-04 23:02 22.29246 115.73762 25634 ft 455 kts 270°
2026-05-04 23:02 22.29289 115.70347 25620 ft 455 kts 269°
2026-05-04 23:03 22.29268 115.66928 25631 ft 455 kts 268°
2026-05-04 23:03 22.29188 115.63520 25636 ft 454 kts 268°
2026-05-04 23:03 22.29084 115.60122 25635 ft 452 kts 268°
2026-05-04 23:03 22.28975 115.56739 25633 ft 450 kts 268°
2026-05-04 23:04 22.28872 115.53414 25617 ft 434 kts 268°
2026-05-04 23:04 22.28777 115.50212 25592 ft 419 kts 268°
2026-05-04 23:04 22.28687 115.47069 24969 ft 418 kts 268°
2026-05-04 23:04 22.28598 115.43958 24355 ft 414 kts 268°
2026-05-04 23:05 22.28509 115.40860 23692 ft 411 kts 267°
2026-05-04 23:05 22.28420 115.37777 22918 ft 409 kts 267°
2026-05-04 23:05 22.28330 115.34718 22230 ft 406 kts 267°
2026-05-04 23:05 22.28240 115.31681 21543 ft 403 kts 267°
2026-05-04 23:06 22.28148 115.28662 20891 ft 401 kts 267°
2026-05-04 23:06 22.28057 115.25699 20268 ft 399 kts 267°
2026-05-04 23:06 22.27965 115.22708 19631 ft 398 kts 267°
2026-05-04 23:06 22.27872 115.19720 18985 ft 398 kts 267°
2026-05-04 23:07 22.27779 115.16732 18339 ft 398 kts 267°
2026-05-04 23:07 22.27685 115.13735 17607 ft 398 kts 266°
2026-05-04 23:07 22.27591 115.10755 16940 ft 396 kts 266°
2026-05-04 23:07 22.27497 115.07793 16296 ft 394 kts 266°
2026-05-04 23:08 22.27402 115.04836 15647 ft 394 kts 266°
2026-05-04 23:08 22.27307 115.01879 15012 ft 393 kts 265°
2026-05-04 23:08 22.27213 114.98933 14395 ft 392 kts 266°
2026-05-04 23:08 22.27118 114.96004 13783 ft 390 kts 266°
2026-05-04 23:09 22.27023 114.93083 13112 ft 388 kts 266°
2026-05-04 23:09 22.26925 114.90194 12665 ft 381 kts 266°
2026-05-04 23:09 22.26827 114.87365 12228 ft 373 kts 266°
2026-05-04 23:09 22.26728 114.84575 11739 ft 367 kts 267°
2026-05-04 23:10 22.26634 114.81875 11567 ft 353 kts 266°
2026-05-04 23:10 22.26320 114.79338 11346 ft 334 kts 251°
2026-05-04 23:10 22.25325 114.77120 11109 ft 326 kts 237°
2026-05-04 23:10 22.23859 114.75275 10813 ft 321 kts 225°
2026-05-04 23:11 22.22262 114.73647 10642 ft 313 kts 225°
2026-05-04 23:11 22.20688 114.72065 10469 ft 305 kts 224°
2026-05-04 23:11 22.19160 114.70523 10307 ft 296 kts 225°
2026-05-04 23:11 22.17701 114.69046 10169 ft 287 kts 226°
2026-05-04 23:12 22.16270 114.67591 10025 ft 278 kts 226°
2026-05-04 23:12 22.14888 114.66180 9896 ft 270 kts 226°
2026-05-04 23:12 22.13539 114.64798 9727 ft 266 kts 226°
2026-05-04 23:12 22.12185 114.63409 9610 ft 271 kts 225°
2026-05-04 23:13 22.10820 114.62009 9485 ft 270 kts 226°
2026-05-04 23:13 22.09472 114.60625 9345 ft 265 kts 224°
2026-05-04 23:13 22.08153 114.59272 9208 ft 259 kts 224°
2026-05-04 23:13 22.06857 114.57942 9097 ft 256 kts 224°
2026-05-04 23:14 22.05551 114.56604 8971 ft 255 kts 224°
2026-05-04 23:14 22.04263 114.55284 8850 ft 256 kts 224°
2026-05-04 23:14 22.02988 114.53977 8790 ft 258 kts 225°
2026-05-04 23:14 22.01947 114.52394 8598 ft 262 kts 249°
2026-05-04 23:15 22.01360 114.50559 8472 ft 256 kts 247°
2026-05-04 23:15 22.00675 114.48795 8314 ft 253 kts 245°
2026-05-04 23:15 21.99981 114.47072 8221 ft 248 kts 245°
2026-05-04 23:15 21.99294 114.45348 8102 ft 254 kts 246°
2026-05-04 23:16 21.98605 114.43591 7991 ft 255 kts 245°
2026-05-04 23:16 21.97917 114.41822 7873 ft 255 kts 246°
2026-05-04 23:16 21.97229 114.40045 7745 ft 259 kts 246°
2026-05-04 23:16 21.96536 114.38248 7623 ft 260 kts 247°
2026-05-04 23:17 21.95840 114.36436 7492 ft 262 kts 248°
2026-05-04 23:17 21.95125 114.34632 7357 ft 260 kts 243°
2026-05-04 23:17 21.94376 114.32912 7231 ft 256 kts 256°
2026-05-04 23:17 21.94363 114.31001 7120 ft 260 kts 284°
2026-05-04 23:18 21.95233 114.29290 6985 ft 266 kts 313°
2026-05-04 23:18 21.96696 114.28097 6952 ft 263 kts 325°
2026-05-04 23:18 21.98237 114.27024 6935 ft 264 kts 325°
2026-05-04 23:18 21.99791 114.25968 6946 ft 264 kts 325°
2026-05-04 23:19 22.01353 114.24914 6947 ft 266 kts 326°
2026-05-04 23:19 22.02930 114.23852 6787 ft 273 kts 326°
2026-05-04 23:19 22.04561 114.22752 6450 ft 276 kts 326°
2026-05-04 23:19 22.06080 114.21585 6318 ft 258 kts 310°
2026-05-04 23:20 22.06804 114.19905 6239 ft 248 kts 273°
2026-05-04 23:20 22.06435 114.18096 6155 ft 254 kts 244°
2026-05-04 23:20 22.05776 114.16304 6046 ft 263 kts 256°
2026-05-04 23:20 22.05425 114.14363 5922 ft 264 kts 261°
2026-05-04 23:21 22.05146 114.12414 5778 ft 262 kts 261°
2026-05-04 23:21 22.04873 114.10488 5644 ft 258 kts 261°
2026-05-04 23:21 22.04595 114.08582 5516 ft 257 kts 261°
2026-05-04 23:21 22.04312 114.06691 5390 ft 255 kts 261°
2026-05-04 23:22 22.04025 114.04805 5261 ft 254 kts 261°
2026-05-04 23:22 22.03737 114.02928 5129 ft 254 kts 261°
2026-05-04 23:22 22.03449 114.01070 4894 ft 256 kts 261°
2026-05-04 23:22 22.03153 113.99169 4834 ft 253 kts 261°
2026-05-04 23:23 22.02859 113.97287 4748 ft 257 kts 261°
2026-05-04 23:23 22.02561 113.95375 4618 ft 259 kts 261°
2026-05-04 23:23 22.02594 113.93487 4477 ft 259 kts 287°
2026-05-04 23:23 22.03390 113.91761 4374 ft 258 kts 300°
2026-05-04 23:24 22.04287 113.90055 4245 ft 265 kts 298°
2026-05-04 23:24 22.05189 113.88307 4113 ft 267 kts 298°
2026-05-04 23:24 22.06085 113.86566 3962 ft 264 kts 298°
2026-05-04 23:24 22.06974 113.84844 3826 ft 261 kts 298°
2026-05-04 23:25 22.07855 113.83131 3715 ft 261 kts 298°
2026-05-04 23:25 22.08737 113.81416 3564 ft 262 kts 298°
2026-05-04 23:25 22.09623 113.79691 3496 ft 265 kts 298°
2026-05-04 23:25 22.10552 113.78020 3412 ft 253 kts 310°
2026-05-04 23:26 22.11916 113.76973 3400 ft 232 kts 337°
2026-05-04 23:26 22.13338 113.76276 3372 ft 216 kts 336°
2026-05-04 23:26 22.14657 113.75611 3401 ft 205 kts 335°
2026-05-04 23:26 22.15945 113.74962 3431 ft 202 kts 335°
2026-05-04 23:27 22.17226 113.74325 3421 ft 203 kts 336°
2026-05-04 23:27 22.18504 113.73685 3363 ft 202 kts 335°
2026-05-04 23:27 22.19777 113.73051 3087 ft 204 kts 337°
2026-05-04 23:27 22.21068 113.72595 2994 ft 186 kts
2026-05-04 23:28 22.22301 113.72968 3048 ft 189 kts 32°
2026-05-04 23:28 22.23447 113.73718 3006 ft 193 kts 35°
2026-05-04 23:28 22.24575 113.74509 2717 ft 194 kts 36°
2026-05-04 23:28 22.25470 113.75136 2725 ft 180 kts 37°
2026-05-04 23:29 22.26361 113.75980 2662 ft 180 kts 62°
2026-05-04 23:29 22.26888 113.77164 2443 ft 170 kts 70°
2026-05-04 23:29 22.27343 113.78290 2208 ft 158 kts 73°
2026-05-04 23:29 22.27717 113.79374 2015 ft 152 kts 73°
2026-05-04 23:30 22.28062 113.80424 1839 ft 145 kts 74°
2026-05-04 23:30 22.28382 113.81412 1659 ft 139 kts 74°
2026-05-04 23:30 22.28704 113.82412 1477 ft 142 kts 74°
2026-05-04 23:30 22.29025 113.83408 1282 ft 139 kts 73°
2026-05-04 23:31 22.29347 113.84403 1090 ft 141 kts 74°
2026-05-04 23:31 22.29669 113.85401 912 ft 140 kts 72°
2026-05-04 23:31 22.29988 113.86391 729 ft 139 kts 73°
2026-05-04 23:31 22.30303 113.87362 542 ft 135 kts 73°
2026-05-04 23:32 22.30509 113.88000 424 ft 132 kts 72°
2026-05-04 23:32 22.30921 113.89277 208 ft 136 kts 73°
2026-05-04 23:32 22.31123 113.89908 67 ft 133 kts 73°
2026-05-04 23:32 22.31409 113.90795 41 ft 110 kts 70°
2026-05-04 23:33 22.31617 113.91418 40 ft 66 kts 71°
2026-05-04 23:33 22.31734 113.91784 40 ft 49 kts 70°
2026-05-04 23:33 22.31797 113.92054 40 ft 27 kts 89°
2026-05-04 23:33 22.31777 113.92221 40 ft 22 kts 100°
2026-05-04 23:34 22.31751 113.92366 40 ft 18 kts 105°
2026-05-04 23:34 22.31659 113.92445 40 ft 18 kts 154°
2026-05-04 23:34 22.31598 113.92527 40 ft 8 kts 117°
2026-05-04 23:34 22.31585 113.92556 40 ft 2 kts 117°
2026-05-04 23:35 22.31576 113.92570 40 ft 3 kts 125°
2026-05-04 23:35 22.31553 113.92580 40 ft 4 kts 175°
2026-05-04 23:35 22.31522 113.92576 40 ft 5 kts 195°
2026-05-04 23:35 22.31498 113.92565 40 ft 0 kts 204°
2026-05-04 23:36 22.31493 113.92563 40 ft 1 kts 204°
2026-05-04 23:36 22.31481 113.92557 40 ft 2 kts 204°
2026-05-04 23:36 22.31471 113.92552 40 ft 1 kts 205°